Regional Weather Roundup
Issued by NWS Wakefield, VA

Home | Current Version | Previous Version | Graphics & Text | Print | Product List | Glossary On
Versions: 1 2 3 4 5 6 7 8 9 10 11 12 13 14 15 16 17 18 19 20 21 22 23 24 25 26 27
000
ASUS41 KAKQ 182215
RWRAKQ

REGIONAL WEATHER ROUNDUP
NATIONAL WEATHER SERVICE WAKEFIELD VA
500 PM EST WED JAN 18 2017

Note: "fair" indicates few or no clouds below 12,000 feet with no
significant weather and/or obstructions to visibility. * = Denotes
station may not report precipitation (e.g., rain,snow,etc.),
thunder or fog.

VAZ042-051-052>054-056-182300-
NORTHERN VIRGINIA

CITY           SKY/WX    TMP DP  RH WIND       PRES   REMARKS
WASH NATIONAL  PTCLDY    56  37  49 N15       30.01R
DULLES         PTCLDY    52  35  52 NW15      30.01R
FORT BELVOIR   PTCLDY    54  37  52 NW10      30.01R
QUANTICO       PTCLDY    55  38  52 N13G25    30.02R
FREDERICKSBRG* CLEAR     57  38  49 N13       29.99R
STAFFORD*      CLEAR     54  36  51 N8        30.04R
WARRENTON      CLEAR     55  33  42 N7        30.00R
CULPEPER*      CLEAR     55  37  49 N6        30.01R
MANASSAS*      CLEAR    N/A N/A N/A N12G17    30.02R
LEESBURG*      PTCLDY    52  39  62 NW14      30.02R
WINCHESTER     PTCLDY    45  34  65 NW16G23   30.04R
FRONT ROYAL*   FAIR      50  36  57 N9        30.01R
LURAY*         FAIR      54  37  54 W3        30.01R
$$

VAZ048-049-060>072-079>083-182300-
CENTRAL AND SOUTH CENTRAL VIRGINIA

CITY           SKY/WX    TMP DP  RH WIND       PRES   REMARKS
RICHMOND       PTCLDY    59  38  45 N9        29.97R
CHESTERFIELD*  FAIR      61  28  29 NW7       29.99R
PETERSBURG*    CLEAR     59  34  38 NW8       29.99R
HANOVER        CLEAR     59  35  40 VRB6      29.99R
TAPPAHANNOCK*  CLEAR     56  32  39 N6        29.99R
QUINTON*       CLOUDY    60  38  44 N3        29.96R
CHARLOTTSVILLE CLEAR     58  34  40 CALM      30.00R
GORDONSVILLE*  FAIR      57  35  43 MISG      29.99R
ORANGE*          N/A     57  34  41 CALM      30.01R
LOUISA*        CLEAR     61  39  44 NW5       29.99R
BUMPASS*       FAIR      57  36  45 NW6       29.99R
FARMVILLE*     CLEAR     59  38  44 CALM      29.98S
CREWE*         FAIR      58  36  43 W5        29.99R
FORT PICKETT*  FAIR      58  27  29 NW10G18   29.99R
CHASE CITY*    FAIR      58  33  38 NW5       30.00R
CLARKSVILLE*   FAIR      61  36  39 NW6       29.99S
SOUTH HILL*    CLEAR     59  36  42 NW7       30.05R
LAWRENCEVILLE* FAIR      59  35  40 NW7       29.99R
EMPORIA*       CLEAR     61  36  39 W5        30.00R
$$

VAZ088>098-182300-
SOUTHEAST VIRGINIA

CITY           SKY/WX    TMP DP  RH WIND       PRES   REMARKS
NORFOLK        CLEAR     50  44  80 N6        29.98R
VIRGINIA BEACH PTCLDY    49  44  83 NW5       29.97R
NORFOLK NAVAL  PTCLDY    50  44  80 NE6       30.00R
WEST POINT*    PTCLDY    56  38  50 N6        29.99R
SALUDA*        MOCLDY    49  46  91 CALM      29.98R
NEWPORT NEWS   MOCLDY    51  45  79 E7        29.98R
LANGLEY AFB    PTCLDY    50  46  86 NE6       29.98R
FORT EUSTIS    MOCLDY    56  47  70 E3        29.96R
WILLIAMSBURG*  PTCLDY    59  45  58 CALM      29.98R
HR EXEC AP*    FAIR      52  43  71 E6        29.97R
FRANKLIN*      MOCLDY    57  47  69 CALM      29.98R
US460-WAKEFLD  CLEAR     59  46  62 CALM      29.97R
$$

VAZ020-022-025-037-045-182300-
WEST CENTRAL AND SOUTHWEST VIRGINIA

CITY           SKY/WX    TMP DP  RH WIND       PRES   REMARKS
STAUNTON*      CLEAR     52  33  48 NW5       30.03R
WAYNESBORO*    FAIR      53  32  45 NW6       30.01R
HOT SPRINGS VA MOCLDY    37  32  81 W15G22    30.00R
LYNCHBURG      CLEAR     54  34  46 W6        30.02R
DANVILLE       CLEAR     59  36  42 W9        30.01R
SOUTH BOSTON*  FAIR      60  34  38 NW7       30.01R
MARTINSVILLE   CLEAR     56  36  45 N5        30.05S
ROANOKE        PTCLDY    52  35  52 NW9       30.07R
BLACKSBURG     MOCLDY    45  37  72 W6        30.10R
DUBLIN*        CLEAR     48  37  66 NW10      30.09S
MARION*        CLEAR     49  38  64 W13       30.09S
HILLSVILLE*    CLEAR     47  38  69 CALM      30.05R
RICHLANDS*     FAIR     N/A N/A N/A N3        30.10S
WISE*          CLEAR     46  36  66 N6        30.11S
ABINGDON*      CLEAR     55  40  56 N6        30.08S
$$

MDZ021>025-VAZ099-100-182300-
SOUTHERN MARYLAND AND THE DELMARVA PENINSULA

CITY           SKY/WX    TMP DP  RH WIND       PRES   REMARKS
PATUXENT RIVER MOCLDY    53  40  61 NW10      29.98R
BAY BRIDGE APT CLOUDY    48  39  71 NW10      30.00R
LEONARDTOWN    CLOUDY    54  37  54 NW5       30.00R
DOVER          CLOUDY    48  48 100 N8        29.92R
GEORGETOWN     CLOUDY    50  43  77 NE6       29.97R
EASTON         CLOUDY    54  41  62 N3        30.03R
CAMBRIDGE      CLOUDY    52  41  66 NW7       29.99R
SALISBURY      CLOUDY    53  42  66 N13       29.96R
OCEAN CITY     CLOUDY    48  44  86 NE7       29.96R
WALLOPS ISLAND CLOUDY    52  44  74 N8        29.97R
ACCOMACK*      PTCLDY    50  46  86 CALM      29.97R
$$

NCZ012>017-030>032-182300-
NORTH CENTRAL AND EASTERN NORTH CAROLINA

CITY           SKY/WX    TMP DP  RH WIND       PRES   REMARKS
ROANOKE RAPIDS FAIR      61  37  41 NW10      29.98R
RALEIGH        PTCLDY    65  34  31 VRB5      29.99R
ELIZABETH CITY CLOUDY    53  45  74 NE7       29.97R
AHOSKIE*         N/A     58  49  72 E3        29.98R
EDENTON*       PTCLDY    58  47  69 CALM      29.98R
CURRITUCK*     CLOUDY    52  45  75 N9        29.98R
KILL DEVIL HLS NOT AVBL
MANTEO         CLOUDY    50  45  82 NE12G18   29.97R
CAPE HATTERAS  PTCLDY    52  46  80 N10G20    29.95R
TARBORO*       NOT AVBL
GOLDSBORO      CLEAR     66  33  29 NW14G20   29.96R
WASHINGTON       N/A     63  37  38 NW9         N/A
GREENVILLE     CLEAR     64  36  34 N10G18    29.99R
NEW BERN       CLEAR     65  37  35 N9        29.96R
WILMINGTON     CLEAR     72  45  37 NW14      29.93R
$$

VAZ048-182300-
ELSEWHERE

CITY           SKY/WX    TMP DP  RH WIND       PRES   REMARKS
HARRISBURG PA  CLOUDY    49  39  68 NW10      30.00R
BALTIMORE      MOCLDY    53  38  56 NW13      30.00R
ANNAPOLIS      CLOUDY    54  38  54 NW9       29.99R
ANDREWS AFB    CLOUDY    53  37  54 NW15G23   29.99R
PHILADELPHIA   CLOUDY    47  40  76 N8        30.00R
HENDERSON NC   CLEAR     59  32  37 NW8       29.99S
GREENSBORO     PTCLDY    63  36  36 N8        30.00R
ROCKY MOUNT    CLEAR     63  36  36 NW8G20    29.98R
$$

VAZ100-182300-
MARINE

STATION/POSITION TIME  TEMP    WIND        PRES    WAVE   SWELL
                       AIR SEA DIR/SP/G            HT/PER HT/PER
                 (UTC) (F)     (DEG/KT/KT) (MB)    (FT/S) (FT/S)
CAPE MAY NJ      2148   43 41  350/  5/  6 1014.4R
LEWES DE         2148   44 41  350/  6/  8 1014.6R
OCEAN-CITY-INLET 2142   48 43   50/  1/  4 1014.9R
WACHAPREAGUE VA  2148   51 50  290/  1/  4 1014.7R
THOMAS POINT MD  2200   54 39  320/ 13/ 16   N/A
GOOSES REEF MD   2150   47     350/ 10/ 12 1016.1R
COVE POINT MD    2148   50     360/ 15/ 17 1015.9R
SOLOMONS ISLAND  2142   54 42  320/  8/ 10   N/A
BISHOPS HEAD MD  2148   54 46  340/  7/ 10 1015.2R
PINEY POINT MD   2142          350/  6/  7   N/A
POTOMAC MD       2150   44     250/  2/  4 1014.2R
CAMBRIDGE MD     2148   51 40  310/  6/  7 1014.4R
LEWISETTA VA     2148   53 44  350/  4/  7 1014.7R
RAPPAHANNOCK LGT 2142          300/  5/  5 1015.5R
STINGRAY PT      2150   47     290/  2/  4 1015.5R
YORK RVR RNG VA  2148   49      50/  6/  6 1014.5R
YORKTOWN VA      2148   48 44  100/  6/  8 1014.9R
JAMESTOWN VA     2150   59      30/  4/  8   N/A
DOMINION TERM VA 2148   49      80/  6/  8 1015.0R
KIPTOPEKE VA     2142      43  340/  6/  6   N/A
CHES BAY BRIDGE  2148   47 43  350/  5/  6 1015.0R
CAPE HENRY VA    2148   47     310/  6/  6   N/A
WILLOUBY STN VA  2148   48      80/  3/  3 1016.1R
S CRANEY ISL VA  2148   49      50/  8/  9 1014.8R
CAPE HENRY BUOY  2142      47                N/A     2/ 6
OFFSHORE WE BUOY 2151      49                N/A     2/ 4
64NM E OF VA BCH 2150   53 57  350/ 17/ 21 1013.5R   5/ 4   2/ 8
DUCK PIER NC     2148   47 46   10/ 10/ 12 1014.3R
44100 DUCK FRF   2135      48                N/A     3/ 4
44056 DUCK FRF   2130      46                N/A     3/ 4
OREGON INLET NC  2136   49 51   10/ 10/ 15 1014.3R
HATTERAS NC      2148   51 55  360/ 23/ 27 1013.7R
DIAMOND SHLS NC  2150   56 72   10/ 27/ 31 1013.1R   7/ 5   2/11
CAPE LOOKOUT NC  2200   58      30/ 24/ 27 1014.0R
$$




USA.gov is the U.S. government's official web portal to all federal, state and local government web resources and services.